User: anonymous   Login
Location: Unspecified
(0.0000°N, 0.0000°E)
Time: 18:50:06
(UTC+02:00)
Language:

Cosmos 1898 Rocket - Orbit

View from above orbital plane
View from above orbital plane
View from above satellite
View from above satellite

Ground track
Ground track

The orbit data is extracted from the following two-line orbital elements,

1 18586U 87098B   17083.58507990 +.00000156 +00000-0 +61636-4 0  9990
2 18586 074.0048 091.1208 0020835 171.4579 327.1059 14.36770772534908
Epoch (UTC): 24 March 2017 14:02:30
Eccentricity: 0.0020835
inclination: 74.0048°
perigee height: 754 km
apogee height: 784 km
right ascension of ascending node: 91.1208°
argument of perigee: 171.4579°
revolutions per day: 14.36770772
mean anomaly at epoch: 327.1059°
orbit number at epoch: 53490

The dashed part of the orbit path shows where the satellite is in the earth's shadow,  

DLR